Погода в Аргудане

Россия / Кабардино-Балкарская Республика     43°25′00″N   43°54′39″E
темп.,
°C
ветер,
м/с
пор.,
м/с
влажн.,
%
обл.,
%
осадки,
мм/ч
давл.,
гПа
погр.,
м
6 мая, чт
чт600:00+8ю22785 0.0 101718
03:00+7ю11810 0.0 101710
06:00+8ю11780 0.0 101754
09:00+14всв23590 0.0 1016710
12:00+18в344816 0.0 10141364
15:00+20всв44475 0.0 10121503
18:00+16всв58615 0.0 1013312
21:00+10в1173100 0.0 101514
7 мая, пт
пт700:00+9зсз2277100 0.0 101528
03:00+8зсз2277100 0.0 101625
06:00+9зсз2275100 0.0 101772
09:00+15с2260100 0.0 1017405
12:00+19с22495 0.0 1017884
15:00+21ссв33434 0.0 10161205
18:00+19в22605 0.0 101745
21:00+14ю11687 0.0 101911
8 мая, сб
сб800:00+12ю22760 0.0 101813
03:00+11ю22794 0.0 101812
06:00+12ю22760 0.0 101845
09:00+18в33565 0.0 1016602
12:00+22всв44436 0.0 10141473
15:00+23в4444100 0.0 10131541
18:00+20в3666100 0.0 1012154
21:00+15в128096 0.0 101215
9 мая, вс
вс900:00+12сз22901 0.0 101126
03:00+10зсз119283 0.0 101011
06:00+12сз1287100 0.0 100976
09:00+16св1171100 0.0 1009279
12:00+21ссв2259100 0.0 1008746
15:00+23с33502 0.0 10081410
18:00+10ссз81491100 2.4 1015849
21:00+7ссз81488100 7.4 1021916
10 мая, пн
пн1000:00+7ссз61287100 1.8 10231156
03:00+6юз2484100 3.3 1024249
06:00+6ю5790100 0.0 1024351
09:00+7ю7780100 0.2 1023521
12:00+12ююв545795 0.0 10221244
15:00+14юв32535 0.0 10191408
18:00+13в226196 0.0 1020293
21:00+9с358098 0.2 1021146